logo tempoitalia

Diretta Meteo Akrotiri, Ciprolunedì 31 agosto ore 08:50

Mappa
Sereno 30 °C Sereno 24 Ore: T.min 23 T.max 32
Ponente Nord Km/h 3.7 Punto di rugiada: 14 °C Umidità: 37% Visibilità: 10 Km
Il sole sorge alle: 06:20 Il sole tramonta alle: 19:16
31 Agosto 2026 08:50 tempo osservato: Sereno Sereno 30 37 1007 vento: Nord N 3.7
31 Agosto 2026 08:20 tempo osservato: Sereno Sereno 28 42 1007 vento: Nord N 1.8
31 Agosto 2026 07:50 tempo osservato: Sereno Sereno 26 47 1007 vento: Nord N 1.8
31 Agosto 2026 07:20 tempo osservato: Sereno Sereno 25 50 1007 vento: Nord N 3.7
31 Agosto 2026 06:50 tempo osservato: Sereno Sereno 23 60 1007 vento: Nord N 5.5
31 Agosto 2026 06:20 tempo osservato: Sereno Sereno 23 60 1007 vento: Nord N 3.7
31 Agosto 2026 05:50 tempo osservato: Sereno Sereno 24 53 1007 vento: Nord N 3.7
31 Agosto 2026 05:20 tempo osservato: Sereno Sereno 24 60 1007 vento: Nord N 5.5
31 Agosto 2026 04:50 tempo osservato: Sereno Sereno 24 57 1007 vento: Nord N 5.5
31 Agosto 2026 04:20 tempo osservato: Sereno Sereno 24 53 1007 vento: Nord N 5.5
31 Agosto 2026 03:50 tempo osservato: Sereno Sereno 24 57 1007 vento: Nord O/NO 7.4
31 Agosto 2026 03:20 tempo osservato: Sereno Sereno 25 53 1006 vento: Nord O/NO 9.3
31 Agosto 2026 02:50 tempo osservato: Sereno Sereno 26 47 1006 vento: Nord O/NO 9.3
31 Agosto 2026 02:20 tempo osservato: Sereno Sereno 26 50 1006 vento: Nord O/NO 11.1
31 Agosto 2026 01:50 tempo osservato: Sereno Sereno 26 50 1007 vento: Nord O/NO 11.1
31 Agosto 2026 01:20 tempo osservato: Sereno Sereno 26 65 1007 vento: Nord O/NO 13
31 Agosto 2026 00:50 tempo osservato: Sereno Sereno 27 50 1007 vento: Nord O/NO 16.7
31 Agosto 2026 00:20 tempo osservato: Sereno Sereno 27 50 1007 vento: Nord O 13
30 Agosto 2026 23:50 tempo osservato: Sereno Sereno 26 54 1007 vento: Nord O 7.4
30 Agosto 2026 23:20 tempo osservato: Sereno Sereno 26 57 1007 vento: Nord O/SO 9.3
30 Agosto 2026 22:50 tempo osservato: Sereno Sereno 26 61 1007 vento: Nord N 3.7
30 Agosto 2026 22:20 tempo osservato: Sereno Sereno 27 61 1006 vento: Nord N 3.7
30 Agosto 2026 21:50 tempo osservato: Sereno Sereno 27 61 1007 vento: Nord NO 9.3
30 Agosto 2026 21:20 tempo osservato: Sereno Sereno 27 74 1007 vento: Nord N/NE 7.4
30 Agosto 2026 20:50 tempo osservato: Sereno Sereno 27 69 1006 vento: Nord NE 11.1
30 Agosto 2026 20:20 tempo osservato: Sereno Sereno 28 65 1006 vento: Nord N/NE 9.3
30 Agosto 2026 19:50 tempo osservato: Sereno Sereno 28 69 1006 vento: Nord N 3.7
30 Agosto 2026 19:20 tempo osservato: Sereno Sereno 29 66 1005 vento: Nord SO 9.3
30 Agosto 2026 18:50 tempo osservato: Sereno Sereno 29 58 1006 vento: Nord SO 14.8
30 Agosto 2026 18:20 tempo osservato: Sereno Sereno 30 51 1006 vento: Nord SO 18.5
30 Agosto 2026 17:50 tempo osservato: Sereno Sereno 30 51 1006 vento: Nord SO 18.5
30 Agosto 2026 17:20 tempo osservato: Sereno Sereno 30 51 1006 vento: Nord S/SO 18.5
30 Agosto 2026 16:50 tempo osservato: Sereno Sereno 31 48 1006 vento: Nord S/SO 20.3
30 Agosto 2026 16:20 tempo osservato: Sereno Sereno 31 48 1006 vento: Nord SO 18.5
30 Agosto 2026 15:50 tempo osservato: Sereno Sereno 31 52 1006 vento: Nord S/SO 20.3
30 Agosto 2026 15:20 tempo osservato: Sereno Sereno 31 52 1006 vento: Nord SO 14.8
30 Agosto 2026 14:50 tempo osservato: Sereno Sereno 31 48 1006 vento: Nord S/SO 16.7
30 Agosto 2026 14:20 tempo osservato: Sereno Sereno 31 43 1006 vento: Nord S 18.5
30 Agosto 2026 13:50 tempo osservato: Nuvoloso Nuvoloso 32 38 1006 vento: Nord S 18.5
30 Agosto 2026 13:20 tempo osservato: Poco Nuvoloso Poco Nuvoloso 31 43 1006 vento: Nord S 16.7
30 Agosto 2026 12:50 tempo osservato: Poco Nuvoloso Poco Nuvoloso 31 35 1006 vento: Nord S 16.7
30 Agosto 2026 12:20 tempo osservato: Poco Nuvoloso Poco Nuvoloso 31 33 1006 vento: Nord S 14.8
30 Agosto 2026 11:50 tempo osservato: Poco Nuvoloso Poco Nuvoloso 30 48 1006 vento: Nord S/SO 16.7
30 Agosto 2026 11:20 tempo osservato: Poco Nuvoloso Poco Nuvoloso 31 31 1006 vento: Nord S/SE 18.5
30 Agosto 2026 10:50 tempo osservato: Sereno Sereno 32 29 1006 vento: Nord S/SE 14.8
30 Agosto 2026 10:20 tempo osservato: Sereno Sereno 30 45 1006 vento: Nord E/NE 11.1
30 Agosto 2026 09:50 tempo osservato: Sereno Sereno 30 48 1005 vento: Nord E/NE 7.4